Other Public Products
Issued by NWS Grand Forks, ND

Home | Current Version | Previous Version | Text Only | Print | Product List | Glossary Off
Versions: 1 2 3 4 5 6 7 8 9 10 11 12 13 14 15 16 17 18 19 20 21 22 23 24 25 26 27 28 29 30 31 32 33 34 35 36 37 38 39 40 41 42 43 44 45 46 47 48 49 50

000
FPUS83 KFGF 020610
OPUFGF
PRAIRIE TO PINES WEATHER ROUNDUP
NATIONAL WEATHER SERVICE EASTERN NORTH DAKOTA/GRAND FORKS ND
100 AM CDT SUN AUG 02 2015

 **SATELLITE DATA USED TO AUGMENT SKY COVER AT AUTOMATED STATIONS**
 *****  WEATHER ACROSS EASTERN NORTH DAKOTA  *****

CITY           SKY/WX    TMP DP  RH WIND       PRES   REMARKS
GRAND FORKS    MOCLDY    68  62  81 CALM      29.65R
6HR MIN TEMP:  67; 6HR MAX TEMP:  84;

GRAND FORKS AF MOCLDY    66  62  86 NW5       29.67R
GRAND CITY NWS NOT AVBL
BUXTON         NOT AVBL
DEVILS LAKE    PTCLDY    72  57  60 NE18      29.70R
6HR MIN TEMP:  66; 6HR MAX TEMP:  86;

FARGO          CLEAR     73  65  75 CALM      29.65S
6HR MIN TEMP:  68; 6HR MAX TEMP:  86;

WAHPETON ARPT  CLEAR     68  64  88 SE5       29.65F
$$

 *****  WEATHER ACROSS CENTRAL AND WESTERN NORTH DAKOTA  *****

CITY           SKY/WX    TMP DP  RH WIND       PRES   REMARKS
JAMESTOWN      CLEAR     71  66  84 S8        29.68F
6HR MIN TEMP:  70; 6HR MAX TEMP:  85;

BISMARCK       CLEAR     68  55  63 W6        29.73F
6HR MIN TEMP:  68; 6HR MAX TEMP:  90;

MINOT          CLEAR     65  55  70 NW12      29.78R
6HR MIN TEMP:  65; 6HR MAX TEMP:  88;

MINOT AFB      CLEAR     67  60  78 NW10      29.78R
6HR MIN TEMP:  67; 6HR MAX TEMP:  88;

GARRISON         N/A     69  55  60 N22G32    29.76R
6HR MIN TEMP:  65; 6HR MAX TEMP:  82;

WILLISTON      CLEAR     68  54  60 N10       29.87R
6HR MIN TEMP:  68; 6HR MAX TEMP:  97;

DICKINSON      CLEAR     65  46  50 NW10      29.84R
6HR MIN TEMP:  64; 6HR MAX TEMP:  92;

HETTINGER      CLEAR     57  46  66 CALM      29.87R
6HR MIN TEMP:  55; 6HR MAX TEMP:  93;

$$

 *****  OTHER OBSERVATIONS NORTHEAST NORTH DAKOTA  *****

CITY           SKY/WX    TMP DP  RH WIND       PRES   REMARKS
WALHALLA       LGT RAIN  63  63 100 MISG      29.72F
LANGDON        MOCLDY    66  57  72 N13       29.76R
CAVALIER       LGT RAIN  64  61  88 NW14      29.72R
GRAFTON        FAIR      68  61  77 N12G18    29.71R
CANDO          NOT AVBL
FORT TOTTEN      N/A     71  63  76 SE3       29.95S
ROLLA          CLOUDY    61  59  94 NW7       29.78S
RUGBY          NOT AVBL
 ***** THE ABOVE OBSERVATIONS ARE NON NWS ARE NOT QUALITY
        CONTROLLED AND MAY MIS-REPORT RAIN FOR SNOW...
$$

 *****  OTHER OBSERVATIONS SOUTHEAST NORTH DAKOTA *****

CITY           SKY/WX    TMP DP  RH WIND       PRES   REMARKS
COOPERSTOWN    NOT AVBL
VALLEY CITY    FAIR      68  68 100 SW6       29.68F
OAKES            N/A     68  68 100 SW3       29.69R
GWINNER          N/A     72  72 100 SW7       29.68S
SHEYENNE NWR     N/A     67  66  97 CALM      29.95S
BUFFALO        NOT AVBL
WYNDMERE         N/A     64  64 100 CALM        N/A
 ***** THE ABOVE OBSERVATIONS ARE NON NWS ARE NOT QUALITY
       CONTROLLED AND MAY MIS-REPORT RAIN FOR SNOW...
$$

  *****  WEATHER ACROSS NORTHERN MINNESOTA  *****

CITY           SKY/WX    TMP DP  RH WIND       PRES   REMARKS
FLAG ISLAND      N/A     70  63  78 N3        29.67R
WARROAD        LGT RAIN  63  59  88 SW12      29.70F
ROSEAU         CLOUDY    61  55  82 N3        29.67F
HALLOCK        LGT RAIN  64  61  88 N12       29.68R
THF RVR FALLS  MOCLDY    68  63  83 CALM      29.67F
6HR MIN TEMP:  64; 6HR MAX TEMP:  79;

HALSTAD        NOT AVBL
FOSSTON        MOCLDY    61  59  94 CALM      29.69R
BAUDETTE       LGT RAIN  63  58  83 W9G30     29.71R
6HR MIN TEMP:  63; 6HR MAX TEMP:  78; 6HR PCP:  0.05;

WASKISH        CLOUDY    68  61  77 SW3       29.68R
CROOKSTON      PTCLDY    68  63  83 CALM      29.67R
$$
  *****  WEATHER ACROSS CENTRAL AND WEST MINNESOTA  *****

CITY           SKY/WX    TMP DP  RH WIND       PRES   REMARKS
BEMIDJI        CLOUDY    65  60  81 SW5       29.68S
PARK RAPIDS    PTCLDY    68  62  81 CALM      29.68F
6HR MIN TEMP:  64; 6HR MAX TEMP:  82;

WADENA         CLEAR     64  63  94 S6        29.69F
DETROIT LAKES  CLEAR     68  64  88 S5        29.68F
MOORHEAD       CLEAR     68  64  88 S6        29.65F
FERGUS FALLS   CLEAR     72  70  94 S7        29.65F
ELBOW LAKE     FAIR      67  65  91 S7        29.69F
MORRIS MN      CLEAR     66  64  94 S6        29.71F
STAPLES        CLEAR     64  63  94 S6        29.70F
WHEATON        CLEAR     68  63  83 S9        29.69F
$$
  *****  WEATHER ELSEWHERE ACROSS MINNESOTA  *****

CITY           SKY/WX    TMP DP  RH WIND       PRES   REMARKS
DULUTH         PTCLDY    67  59  75 SW10      29.69F
6HR MIN TEMP:  64; 6HR MAX TEMP:  78;

INTRNTL FALLS  LGT RAIN  61  57  87 SW3       29.64S
6HR MIN TEMP:  57; 6HR MAX TEMP:  77;

ELY            MOCLDY    63  54  72 CALM      29.67F
CLOQUET        CLEAR     66  57  72 SW7       29.69F
BRAINERD       CLEAR     67  63  87 CALM      29.70F
6HR MIN TEMP:  64; 6HR MAX TEMP:  79;

HIBBING        PTCLDY    58  55  90 CALM      29.68F
6HR MIN TEMP:  58; 6HR MAX TEMP:  79;

ALEXANDRIA     CLEAR     71  66  84 SW8       29.74F
6HR MIN TEMP:  70; 6HR MAX TEMP:  82;

SAINT CLOUD    PTCLDY    72  66  81 SW9       29.72F
6HR MIN TEMP:  70; 6HR MAX TEMP:  82;

MINNEAPOLIS    PTCLDY    76  65  68 SW15G23   29.75F
6HR MIN TEMP:  76; 6HR MAX TEMP:  85; 6HR PCP: TRACE;

$$

  *****  WEATHER ACROSS SOUTH DAKOTA  *****

CITY           SKY/WX    TMP DP  RH WIND       PRES   REMARKS
SIOUX FALLS    CLEAR     73  63  70 SW7       29.82F
6HR MIN TEMP:  73; 6HR MAX TEMP:  83;

BROOKINGS      CLEAR     70  61  73 S8        29.82S
WATERTOWN      CLEAR     71  65  81 SW12      29.77F
6HR MIN TEMP:  69; 6HR MAX TEMP:  84;

HURON          CLEAR     73  61  65 SW10      29.75F
6HR MIN TEMP:  70; 6HR MAX TEMP:  89;

SISSETON         N/A     68  65  90 SW8       29.67F
ABERDEEN       CLEAR     61  58  90 S6        29.71S
6HR MIN TEMP:  60; 6HR MAX TEMP:  91;

MITCHELL       CLEAR     72  62  71 SW8       29.79F
PIERRE           N/A     75  61  61 SW10      29.78F
6HR MIN TEMP:  74; 6HR MAX TEMP:  93;

MOBRIDGE       CLEAR     66  57  72 N3        29.76R
RAPID CITY     CLEAR     70  61  73 SW7       29.92F
6HR MIN TEMP:  69; 6HR MAX TEMP:  91;

$$

  *****  SOME WEATHER IN NEARBY STATES *****

CITY           SKY/WX    TMP DP  RH WIND       PRES   REMARKS
GLASGOW MT     CLEAR     67  51  56 E8        29.90R
6HR MIN TEMP:  67; 6HR MAX TEMP:  93;

GREAT FALLS MT CLEAR     65  35  33 SW9       29.93R
6HR MIN TEMP:  65; 6HR MAX TEMP:  96;

CHEYENNE WY    PTCLDY    65  53  65 S8        30.17S
6HR MIN TEMP:  64; 6HR MAX TEMP:  84;

SCOTTSBLUFF NE PTCLDY    71  55  56 SE8       30.03S
6HR MIN TEMP:  65; 6HR MAX TEMP:  85;

OMAHA NE       CLEAR     76  72  87 S8        29.90F
6HR MIN TEMP:  75; 6HR MAX TEMP:  84;

DES MOINES IA  PTCLDY    76  67  73 SW12      29.90F
6HR MIN TEMP:  76; 6HR MAX TEMP:  87;

DAVENPORT IA   CLEAR     73  70  90 SW8       29.91F
6HR MIN TEMP:  71; 6HR MAX TEMP:  80;

CHICAGO IL     CLEAR     74  65  73 SW8       29.89S
6HR MIN TEMP:  74; 6HR MAX TEMP:  83;

EAU CLAIRE WI  PTCLDY    69  66  90 S7        29.77F
6HR MIN TEMP:  66; 6HR MAX TEMP:  81; 6HR PCP:  0.01;

LA CROSSE WI   PTCLDY    76  68  76 S12       29.79F
6HR MIN TEMP:  76; 6HR MAX TEMP:  85;

$$

  *****  SOME NATIONAL WEATHER *****

CITY           SKY/WX    TMP DP  RH WIND       PRES   REMARKS
LA GUARDIA NY  PTCLDY    77  58  51 NW3       29.86R


USA.gov is the U.S. government's official web portal to all federal, state and local government web resources and services.